Location: Tucson
(32.2217°N, 110.9265°W)
Time: 07:50:42
(UTC-07:00)

Tiros 1 - Pass Details

Date: 26 October 2021
Orbit: 629 x 664 km, 48.4° (Epoch: 26 November)

Event Time Altitude Azimuth Distance (km) Brightness Sun altitude
Rises 12:44:07 0° 312° (NW) 2,973 10.3 44.2°
Reaches altitude 10° 12:48:25 10° 349° (NNW) 2,052 9.4 44.0°
Maximum altitude 12:49:42 11° 5° (N) 1,983 9.3 43.9°
Drops below altitude 10° 12:51:00 10° 21° (NNE) 2,045 9.4 43.9°
Sets 12:55:15 0° 57° (ENE) 2,944 10.2 43.6°
